User: anonymous   Login
Location: Unspecified
(0.0000°N, 0.0000°E)
Time: 22:12:53
(UTC+01:00)
Language:

ARIANE DEB (SPELDA) - Orbit

View from above orbital plane
View from above orbital plane
View from above satellite
View from above satellite

Ground track
Ground track

The orbit data is extracted from the following two-line orbital elements,

1 27402U 02015D   17024.17791345  .00000570  00000-0  48131-3 0  9996
2 27402   3.3444 182.6722 7077628 197.9636 110.4394  2.48497988130477
Epoch (UTC): 24 January 2017 04:16:11
Eccentricity: 0.7077628
inclination: 3.3444°
perigee height: 350 km
apogee height: 32941 km
right ascension of ascending node: 182.6722°
argument of perigee: 197.9636°
revolutions per day: 2.48497988
mean anomaly at epoch: 110.4394°
orbit number at epoch: 13047

The dashed part of the orbit path shows where the satellite is in the earth's shadow,  

DLR